[[{"header":{"parameterUnit":"m.s-1","parameterCategory":2,"la1":30.2991,"la2":30.254,"lo1":-89.0895,"lo2":-89.0444,"dy":0.0017,"dx":0.0017,"nx":28,"ny":28,"refTime":"2025-01-25T03:00:00:Z","depth":"0","parameterNumber":2,"parameterNumberName":"U-component_of_CURRENTS"},"data":[0,0,0,0,0,0,0,0,0,0,0,0,0,0,0,0,0,0,0,0,0,0,0,0,0,0,0,0,0,0,0,0,0,0,0,0,0,0,0,0,0,0,0,0,0,0,0,0,0,0,0,0,0,0,0,0,0,0,0.1465,0.1465,0,0.1449,0.1449,0.1449,0.1389,0.1387,0.1386,0.1385,0.1396,0.1398,0.1399,0,0,0,0,0,0,0,0,0,0,0,0,0,0.1449,0.1449,0.1465,0.1465,0.1464,0.1449,0.1449,0.1449,0.1389,0.1387,0.1386,0.1384,0.1396,0.1398,0.1399,0,0,0,0,0,0,0,0,0,0,0,0,0,0.1446,0.1449,0.1465,0.1433,0.143,0.1449,0.1449,0.1449,0.1389,0.1387,0.1385,0.1383,0.1395,0.1397,0.14,0.1454,0,0,0.1407,0.1408,0,0,0,0,0,0,0,0,0.1446,0.1447,0.1438,0.1435,0.1432,0.1419,0.1448,0.1452,0.139,0.1404,0.1385,0.1382,0.1408,0.1409,0.141,0.1455,0.1455,0.1407,0.1408,0.1409,0.141,0,0,0,0,0,0,0,0.1447,0.1447,0.1458,0.1438,0.1434,0.1422,0.1419,0.1448,0.1418,0.1403,0.1398,0.1398,0.1406,0.1408,0.141,0.1456,0.1407,0.1409,0.1411,0.1411,0.1663,0.1668,0,0,0,0,0,0,0.1452,0.1448,0.1459,0.1458,0.1435,0.1424,0.1421,0.1425,0.1417,0.1414,0.14,0.1395,0.1405,0.1407,0.141,0.1571,0.1409,0.1412,0.1413,0.1658,0.1664,0.167,0,0,0,0,0,0,0.1452,0.1453,0.1459,0.1452,0.1452,0.1426,0.1431,0.1426,0.1423,0.1414,0.1411,0.1403,0.1403,0.1407,0.1461,0.1567,0.1413,0.1415,0.1652,0.166,0.1667,0.1831,0,0,0,0,0,0,0.1451,0.1453,0.147,0.1453,0.1453,0.1504,0.1433,0.1427,0.1427,0.1421,0.1417,0.1415,0.1402,0.1458,0.1464,0.1567,0.1417,0.1645,0.1655,0.1665,0.1819,0.1843,0.1864,0,0,0,0,0,0.1451,0.1502,0.1471,0.1473,0.1473,0.1507,0.1508,0.1481,0.1429,0.1463,0.1452,0.1415,0.1526,0.1464,0.1469,0.1576,0.164,0.1652,0.1664,0.1808,0.1838,0.1864,0,0,0,0,0,0,0.1528,0.15,0.1466,0.151,0.1515,0.1498,0.1535,0.149,0.1505,0.1502,0.1461,0.1463,0.1568,0.1548,0.1479,0.1683,0.1587,0.1601,0.1696,0.1724,0.1746,0.1687,0.1419,0,0,0,0,0,0.1546,0.1566,0.154,0.1584,0.1589,0.1554,0.1563,0.1543,0.1545,0.1546,0.1541,0.1562,0.1626,0.1646,0.1697,0.1784,0.1735,0.1866,0.1889,0.1908,0.187,0.1905,0.1926,0.1709,0.1709,0.1709,0,0,0.1593,0.158,0.1594,0.16,0.1601,0.1641,0.1557,0.1596,0.1624,0.1552,0.1612,0.1644,0.167,0.1787,0.1833,0.1775,0.1956,0.1923,0.1939,0.1888,0.192,0.194,0.1958,0.1717,0.1715,0.1714,0,0,0.1701,0.1685,0.1729,0.1736,0.174,0.173,0.1739,0.1732,0.1726,0.1791,0.1766,0.1837,0.1913,0.1951,0.198,0.2154,0.2084,0.2202,0.2256,0.2296,0.2311,0.2325,0.2319,0.233,0.2203,0.2204,0.2204,0,0.1756,0.1776,0.1759,0.1801,0.1797,0.1771,0.1807,0.1834,0.1846,0.1835,0.1842,0.1951,0.1994,0.2093,0.2177,0.2204,0.2186,0.2146,0.2319,0.2331,0.2342,0.2332,0.2342,0.2213,0.2212,0.2211,0.221,0,0.1876,0.1886,0.1928,0.1948,0.1972,0.2005,0.2012,0.2046,0.2036,0.2028,0.2114,0.2174,0.2206,0.2293,0.2294,0.2412,0.2363,0.2349,0.2232,0.2372,0.2355,0.2362,0.2226,0.2223,0.222,0.2218,0,0,0.1966,0.1993,0.1995,0.1977,0.2019,0.2033,0.2122,0.2135,0.2134,0.2216,0.2219,0.239,0.2364,0.2394,0.2422,0.2481,0.2593,0.2453,0.2451,0.2414,0.2643,0.2598,0.26,0.2606,0.2608,0.2609,0.2609,0,0.2031,0.2082,0.2092,0.2137,0.2141,0.2142,0.2198,0.2225,0.2247,0.2272,0.2334,0.2382,0.242,0.2443,0.2518,0.256,0.2615,0.2591,0.2537,0.2534,0.2451,0.2609,0.25,0.2489,0.2615,0.2616,0.2617,0,0.2092,0.2101,0.2138,0.2118,0.2122,0.2164,0.2165,0.2215,0.2269,0.2284,0.234,0.2364,0.2464,0.2485,0.2594,0.2571,0.2615,0.2655,0.2656,0.2541,0.2503,0.2369,0.2496,0.2319,0.2627,0.2626,0.2625,0,0.2061,0.21,0.2098,0.2104,0.2135,0.2137,0.2154,0.22,0.2209,0.2271,0.2287,0.2375,0.2413,0.25,0.259,0.2593,0.269,0.2695,0.2688,0.2683,0.2536,0.2516,0.2447,0.2774,0.2774,0.2774,0.2774,0,0.2063,0.2054,0.207,0.2068,0.2053,0.2086,0.2082,0.2118,0.2163,0.2178,0.2262,0.23,0.2424,0.2493,0.2577,0.2643,0.2673,0.2701,0.2694,0.2598,0.2583,0.2374,0.2317,0.2774,0.2774,0.2774,0.2774,0,0.2025,0.2039,0.2028,0.2041,0.2035,0.2022,0.2031,0.2032,0.2082,0.2114,0.2135,0.2241,0.2336,0.2438,0.2568,0.2605,0.2586,0.2702,0.2559,0.2537,0.2363,0.2322,0.2212,0.215,0.2688,0.2687,0.2686,0,0.201,0.2002,0.1996,0.1979,0.1979,0.1962,0.1952,0.199,0.1998,0.2082,0.2094,0.2192,0.2262,0.2404,0.2517,0.2618,0.253,0.2539,0.2549,0.2341,0.229,0.2229,0.2181,0.2427,0.2424,0.2422,0.242,0,0.1979,0.1975,0.1969,0.1931,0.1906,0.1877,0.1866,0.1863,0.1917,0.1953,0.201,0.2072,0.2226,0.2288,0.241,0.2474,0.2357,0.2494,0.2325,0.2119,0.1999,0.1938,0.2407,0.2399,0.2401,0.2403,0.2404,0.2405,0.1951,0.1928,0.191,0.1864,0.1833,0.1779,0.1733,0.1755,0.1759,0.1796,0.1894,0.1963,0.2043,0.2225,0.225,0.2164,0.2251,0.2081,0.2059,0.2023,0.1928,0.2337,0.2298,0.2299,0.23,0.2301,0.2302,0,0.1893,0.1867,0.1836,0.1765,0.1693,0.17,0.1659,0.1615,0.1601,0.1709,0.1747,0.1793,0.1809,0.1867,0.1837,0.1718,0.1693,0.1618,0.148,0.1469,0.1853,0.1801,0.1596,0.1596,0.1596,0.1596,0.1596,0.1596,0.186,0.1803,0.1774,0.1633,0.1577,0.1456,0.1414,0.1392,0.1442,0.1464,0.1511,0.1574,0.155,0.1397,0.1236,0.1226,0.1088,0.1055,0.1053,0.126,0.1299,0.1337,0.1272,0.0958,0.0958,0.0607,0.0603,0.0601]},{"header":{"parameterUnit":"m.s-1","parameterCategory":2,"la1":30.2991,"la2":30.254,"lo1":-89.0895,"lo2":-89.0444,"dy":0.0017,"dx":0.0017,"nx":28,"ny":28,"refTime":"2025-01-25T03:00:00:Z","depth":"0","parameterNumber":3,"parameterNumberName":"V-component_of_CURRENTS"},"data":[0,0,0,0,0,0,0,0,0,0,0,0,0,0,0,0,0,0,0,0,0,0,0,0,0,0,0,0,0,0,0,0,0,0,0,0,0,0,0,0,0,0,0,0,0,0,0,0,0,0,0,0,0,0,0,0,0,0,-0.0138,-0.0138,0,-0.0144,-0.0144,-0.0144,-0.0184,-0.0185,-0.0186,-0.0187,-0.0149,-0.0147,-0.0145,0,0,0,0,0,0,0,0,0,0,0,0,0,-0.016,-0.0159,-0.0138,-0.0138,-0.0139,-0.0144,-0.0144,-0.0144,-0.0184,-0.0185,-0.0186,-0.0187,-0.0149,-0.0147,-0.0145,0,0,0,0,0,0,0,0,0,0,0,0,0,-0.0156,-0.0159,-0.0138,-0.0159,-0.0161,-0.0144,-0.0144,-0.0144,-0.0183,-0.0185,-0.0186,-0.0188,-0.015,-0.0147,-0.0144,-0.0095,0,0,-0.0135,-0.0134,0,0,0,0,0,0,0,0,-0.0156,-0.0155,-0.0156,-0.0158,-0.016,-0.0166,-0.0138,-0.0126,-0.0183,-0.0174,-0.0187,-0.0189,-0.0149,-0.0147,-0.0144,-0.0093,-0.0092,-0.0135,-0.0133,-0.0132,-0.0131,0,0,0,0,0,0,0,-0.0156,-0.0155,-0.014,-0.0156,-0.0159,-0.0168,-0.0169,-0.0136,-0.0152,-0.0175,-0.0178,-0.018,-0.015,-0.0147,-0.0143,-0.0091,-0.0135,-0.0132,-0.0131,-0.0129,0.0166,0.0172,0,0,0,0,0,0,-0.0155,-0.0155,-0.014,-0.014,-0.0163,-0.0167,-0.0168,-0.0162,-0.0153,-0.0154,-0.0178,-0.0181,-0.0151,-0.0147,-0.0142,0.003,-0.0132,-0.0129,-0.0127,0.016,0.0167,0.0174,0,0,0,0,0,0,-0.0155,-0.0153,-0.014,-0.0149,-0.0148,-0.0165,-0.0157,-0.0161,-0.0157,-0.0156,-0.0156,-0.0172,-0.0152,-0.0146,-0.0074,0.0027,-0.0128,-0.0125,0.0153,0.0162,0.0171,0.0302,0,0,0,0,0,0,-0.0156,-0.0153,-0.0144,-0.0149,-0.0148,-0.0102,-0.0156,-0.016,-0.0156,-0.016,-0.015,-0.0148,-0.0153,-0.0078,-0.0071,0.0028,-0.0123,0.0145,0.0157,0.0168,0.029,0.0315,0.0336,0,0,0,0,0,-0.0156,-0.0124,-0.0144,-0.0142,-0.0136,-0.01,-0.0098,-0.0117,-0.0154,-0.0126,-0.0111,-0.0149,0.0001,-0.0072,-0.0065,0.0038,0.014,0.0154,0.0167,0.028,0.031,0.0335,0,0,0,0,0,0,-0.012,-0.0125,-0.0147,-0.0117,-0.0103,-0.0107,-0.0083,-0.0108,-0.0079,-0.0081,-0.0097,-0.0091,0.0023,0.0019,-0.0061,0.0167,0.0076,0.0091,0.016,0.0188,0.021,0.0199,-0.012,0,0,0,0,0,-0.0111,-0.0088,-0.0096,-0.0065,-0.0059,-0.0074,-0.0066,-0.0075,-0.0056,-0.0049,-0.0037,0.0007,0.0089,0.0121,0.018,0.028,0.0219,0.0365,0.0388,0.0406,0.041,0.0391,0.0409,0.0219,0.0219,0.0218,0,0,-0.0085,-0.0087,-0.0072,-0.0056,-0.0051,0.0007,-0.0071,-0.0039,0.0029,-0.0043,0.0058,0.0079,0.0135,0.0265,0.0317,0.0266,0.0436,0.0424,0.0439,0.0432,0.0407,0.0424,0.0439,0.0228,0.0226,0.0225,0,0,0.0002,-0.0024,0.0031,0.0053,0.0069,0.0068,0.008,0.009,0.0112,0.0203,0.0194,0.0271,0.0366,0.0435,0.0482,0.0669,0.0557,0.07,0.0797,0.078,0.0793,0.0803,0.0751,0.0755,0.0708,0.0709,0.0709,0,0.0035,0.0088,0.0058,0.0126,0.0151,0.0105,0.018,0.0221,0.026,0.0293,0.0265,0.042,0.0465,0.0623,0.0705,0.072,0.0653,0.0675,0.08,0.0809,0.0818,0.0761,0.0764,0.0717,0.0716,0.0715,0.0714,0,0.0172,0.021,0.025,0.0314,0.0348,0.0401,0.0437,0.0485,0.0489,0.0511,0.0635,0.0682,0.0756,0.0821,0.0825,0.0944,0.0858,0.082,0.0705,0.0843,0.0777,0.0778,0.0728,0.0725,0.0723,0.0721,0,0,0.0249,0.0327,0.0339,0.0373,0.0438,0.0471,0.0605,0.0683,0.0737,0.08,0.0873,0.1045,0.0993,0.1046,0.1051,0.1064,0.1092,0.0969,0.0964,0.0872,0.0999,0.0929,0.0921,0.1034,0.1036,0.1037,0.0925,0,0.0357,0.0482,0.0509,0.0631,0.0683,0.0699,0.0811,0.088,0.0919,0.0982,0.1037,0.111,0.1104,0.1115,0.1141,0.1099,0.1099,0.1122,0.0919,0.0913,0.0796,0.0924,0.0941,0.0842,0.0925,0.0925,0.0925,0,0.0476,0.0531,0.0656,0.0734,0.076,0.0837,0.0932,0.1028,0.112,0.1146,0.1204,0.1197,0.1277,0.1217,0.1202,0.1193,0.1119,0.1071,0.1064,0.0949,0.0847,0.0725,0.0838,0.0782,0.0924,0.0925,0.0925,0,0.0496,0.0625,0.0705,0.0742,0.0847,0.0908,0.0965,0.1066,0.113,0.1214,0.1228,0.1292,0.1292,0.1244,0.1174,0.1163,0.1092,0.1059,0.0928,0.0918,0.0874,0.086,0.0872,0.1031,0.1031,0.1032,0.1032,0,0.0572,0.0636,0.071,0.0753,0.0844,0.0913,0.1012,0.1083,0.1167,0.1226,0.1275,0.1303,0.1286,0.1245,0.1176,0.1053,0.1088,0.0962,0.0903,0.0925,0.0918,0.0814,0.0776,0.1027,0.1028,0.1029,0.103,0,0.0581,0.0637,0.0721,0.082,0.085,0.0908,0.1013,0.108,0.1152,0.1221,0.1239,0.1292,0.1243,0.1199,0.111,0.1037,0.0896,0.0879,0.0894,0.0841,0.067,0.0639,0.0553,0.0527,0.0724,0.0722,0.072,0,0.0602,0.0641,0.0736,0.0771,0.0813,0.0899,0.0961,0.1062,0.112,0.1207,0.1228,0.1217,0.1215,0.1071,0.0969,0.0834,0.0794,0.0729,0.0753,0.0684,0.0606,0.0593,0.0579,0.0742,0.074,0.0739,0.0738,0,0.0619,0.0641,0.0696,0.0756,0.0816,0.0899,0.0981,0.1021,0.1129,0.1174,0.1205,0.1207,0.1107,0.1005,0.084,0.0757,0.07,0.0696,0.0642,0.0649,0.062,0.0558,0.0761,0.0728,0.0729,0.073,0.073,0.0731,0.0609,0.0635,0.0681,0.0736,0.0807,0.0878,0.0916,0.0994,0.1062,0.1108,0.1146,0.1136,0.105,0.0847,0.0734,0.0563,0.057,0.0511,0.0481,0.0476,0.0466,0.0627,0.0516,0.0516,0.0516,0.0516,0.0516,0,0.0581,0.0607,0.0658,0.0719,0.0768,0.0823,0.0913,0.0934,0.0971,0.1037,0.1051,0.101,0.0885,0.0759,0.0554,0.0401,0.0391,0.0324,0.035,0.0347,0.0508,0.0526,0.0393,0.0393,0.0393,0.0393,0.0393,0.0393,0.0565,0.0583,0.0604,0.0652,0.0696,0.0734,0.0769,0.0806,0.0853,0.0862,0.0863,0.0877,0.0813,0.0547,0.0331,0.0281,0.0206,0.0157,0.0107,0.0256,0.0273,0.0289,0.0301,0.0123,0.0122,0.0002,0.0,-0.0001]}],[{"header":{"parameterUnit":"m.s-1","parameterCategory":2,"la1":30.2991,"la2":30.254,"lo1":-89.0895,"lo2":-89.0444,"dy":0.0017,"dx":0.0017,"nx":28,"ny":28,"refTime":"2025-01-25T03:00:00:Z","depth":"2","parameterNumber":2,"parameterNumberName":"U-component_of_CURRENTS"},"data":[0,0,0,0,0,0,0,0,0,0,0,0,0,0,0,0,0,0,0,0,0,0,0,0,0,0,0,0,0,0,0,0,0,0,0,0,0,0,0,0,0,0,0,0,0,0,0,0,0,0,0,0,0,0,0,0,0,0,0.1317,0.1317,0,0.1353,0.1354,0.1354,0.1349,0.1348,0.1347,0.1347,0.1488,0.1492,0.1497,0,0,0,0,0,0,0,0,0,0,0,0,0,0.1329,0.1329,0.1317,0.1317,0.1317,0.1353,0.1354,0.1354,0.135,0.1348,0.1347,0.1346,0.1486,0.1492,0.1497,0,0,0,0,0,0,0,0,0,0,0,0,0,0.1344,0.1329,0.1317,0.1316,0.1316,0.1353,0.1354,0.1355,0.135,0.1348,0.1347,0.1346,0.1484,0.1491,0.1498,0.1569,0,0,0.1519,0.1522,0,0,0,0,0,0,0,0,0.1343,0.1344,0.1316,0.1316,0.1316,0.1342,0.1409,0.143,0.135,0.1341,0.1347,0.1345,0.1447,0.1457,0.1471,0.1576,0.1582,0.152,0.1524,0.1527,0.1529,0,0,0,0,0,0,0,0.1342,0.1343,0.1335,0.1316,0.1316,0.1343,0.1343,0.1414,0.1407,0.1342,0.1341,0.1339,0.1448,0.1464,0.1475,0.1584,0.152,0.1526,0.153,0.1533,0.1934,0.1941,0,0,0,0,0,0,0.1327,0.1341,0.1334,0.1336,0.1322,0.1343,0.1344,0.1338,0.1404,0.141,0.134,0.1338,0.1453,0.1466,0.148,0.1708,0.1527,0.1534,0.1538,0.1928,0.1936,0.1943,0,0,0,0,0,0,0.1327,0.1326,0.1332,0.1337,0.1339,0.1343,0.1338,0.134,0.1374,0.14,0.1409,0.1374,0.1452,0.147,0.1584,0.1708,0.1537,0.1543,0.192,0.193,0.1939,0.2075,0,0,0,0,0,0,0.1327,0.1326,0.1356,0.1335,0.1338,0.1385,0.1339,0.1341,0.1371,0.1371,0.1433,0.1442,0.1453,0.1573,0.1591,0.1714,0.1548,0.1912,0.1925,0.1936,0.2062,0.2088,0.211,0,0,0,0,0,0.1327,0.1387,0.1357,0.1358,0.1366,0.1387,0.1393,0.1393,0.1375,0.1415,0.146,0.1442,0.1664,0.1583,0.1602,0.1731,0.1906,0.1921,0.1935,0.2052,0.2083,0.211,0,0,0,0,0,0,0.1401,0.139,0.1358,0.1406,0.14,0.1385,0.1439,0.1415,0.1479,0.1492,0.1502,0.1518,0.1675,0.169,0.16,0.189,0.1794,0.1813,0.1876,0.1906,0.1929,0.1884,0.1554,0,0,0,0,0,0.1427,0.1483,0.1437,0.1484,0.1481,0.1458,0.1478,0.1465,0.1495,0.152,0.1567,0.1647,0.1751,0.1809,0.1893,0.2036,0.1961,0.2144,0.2168,0.2188,0.2172,0.2131,0.2145,0.1991,0.1991,0.199,0,0,0.1468,0.1473,0.1503,0.1507,0.1506,0.1552,0.1471,0.151,0.1591,0.1533,0.1695,0.1728,0.1808,0.1974,0.2048,0.1999,0.2207,0.2207,0.2222,0.2194,0.2147,0.216,0.2172,0.2001,0.1999,0.1997,0,0,0.1583,0.1575,0.1652,0.1654,0.1657,0.1655,0.1667,0.1669,0.1718,0.184,0.1843,0.1927,0.2093,0.2157,0.2215,0.2425,0.233,0.2492,0.2579,0.2542,0.2551,0.2558,0.2507,0.2508,0.2508,0.2508,0.2508,0,0.1635,0.1692,0.1679,0.1735,0.1748,0.1706,0.176,0.1833,0.1887,0.191,0.1925,0.2098,0.2184,0.2328,0.2438,0.2476,0.2416,0.2452,0.2561,0.2567,0.2571,0.2517,0.2516,0.2516,0.2515,0.2514,0.2514,0,0.1777,0.1821,0.1868,0.1927,0.1957,0.1997,0.2036,0.2099,0.2139,0.2157,0.2285,0.2367,0.2435,0.2531,0.2572,0.2683,0.2619,0.258,0.2458,0.2593,0.2531,0.2527,0.2528,0.2525,0.2523,0.2521,0,0,0.1879,0.195,0.1963,0.1982,0.2039,0.2061,0.2211,0.2267,0.2308,0.241,0.2449,0.2679,0.2625,0.269,0.2729,0.2747,0.2791,0.2704,0.2698,0.2601,0.2682,0.2595,0.2581,0.2744,0.2744,0.2744,0.2631,0,0.1976,0.2086,0.2111,0.2219,0.2257,0.2253,0.2376,0.243,0.2481,0.2529,0.2585,0.2671,0.2725,0.275,0.2782,0.2774,0.2784,0.2823,0.2612,0.2606,0.2466,0.2576,0.2353,0.2229,0.2627,0.2626,0.2625,0,0.2103,0.2143,0.2246,0.2293,0.2306,0.2387,0.2446,0.2546,0.2602,0.2628,0.2655,0.2665,0.2756,0.2761,0.2768,0.2778,0.2761,0.274,0.2733,0.2587,0.2511,0.2162,0.2205,0.2618,0.2618,0.2619,0.2619,0,0.2154,0.224,0.2313,0.2332,0.2398,0.2447,0.2497,0.2561,0.2616,0.2665,0.2661,0.2701,0.2737,0.2704,0.2742,0.2733,0.2691,0.2648,0.2537,0.2529,0.2265,0.2234,0.2625,0.2625,0.2626,0.2626,0.2626,0,0.2237,0.2301,0.2336,0.2369,0.2442,0.2477,0.2555,0.2601,0.2637,0.2672,0.2705,0.2719,0.2727,0.2716,0.2704,0.2621,0.2654,0.2552,0.2498,0.2317,0.2293,0.2565,0.256,0.2622,0.2623,0.2624,0.2624,0,0.2312,0.2337,0.2415,0.246,0.2478,0.2539,0.2598,0.2635,0.267,0.2704,0.2723,0.2739,0.271,0.2695,0.2646,0.2576,0.2501,0.247,0.2265,0.219,0.2357,0.2362,0.2264,0.226,0.2256,0.2253,0.2251,0,0.2374,0.2414,0.2471,0.2503,0.2538,0.2602,0.2642,0.2675,0.2695,0.2714,0.272,0.271,0.2638,0.2514,0.2404,0.2273,0.2435,0.2033,0.1992,0.2365,0.2322,0.2332,0.234,0.1701,0.1694,0.1689,0.1685,0,0.2461,0.2484,0.2522,0.257,0.2622,0.2651,0.2698,0.2698,0.2717,0.2666,0.2598,0.2516,0.2403,0.2138,0.2026,0.1944,0.2023,0.1915,0.233,0.1849,0.183,0.1791,0.1818,0.1636,0.1641,0.1644,0.1647,0.1649,0.2531,0.2565,0.2593,0.2637,0.2673,0.2672,0.2662,0.2616,0.2542,0.2369,0.2408,0.2132,0.2029,0.1653,0.159,0.1556,0.1675,0.1584,0.1602,0.1625,0.1602,0.1581,0.1334,0.1336,0.1339,0.1341,0.1343,0,0.2579,0.2608,0.2647,0.2669,0.2665,0.2682,0.2664,0.2514,0.2318,0.2125,0.1934,0.1544,0.1299,0.1279,0.1099,0.1055,0.106,0.1057,0.1055,0.11,0.1141,0.1097,0.0693,0.0691,0.069,0.069,0,0,0.2614,0.2637,0.2624,0.2617,0.2626,0.2565,0.2517,0.2239,0.2024,0.1559,0.1305,0.1167,0.1145,0.0871,0.0838,0.076,0.094,0.0725,0.123,0.1269,0.131,0.1408,0.1385,0,0,0,0,0]},{"header":{"parameterUnit":"m.s-1","parameterCategory":2,"la1":30.2991,"la2":30.254,"lo1":-89.0895,"lo2":-89.0444,"dy":0.0017,"dx":0.0017,"nx":28,"ny":28,"refTime":"2025-01-25T03:00:00:Z","depth":"2","parameterNumber":3,"parameterNumberName":"V-component_of_CURRENTS"},"data":[0,0,0,0,0,0,0,0,0,0,0,0,0,0,0,0,0,0,0,0,0,0,0,0,0,0,0,0,0,0,0,0,0,0,0,0,0,0,0,0,0,0,0,0,0,0,0,0,0,0,0,0,0,0,0,0,0,0,-0.0009,-0.0008,0,0.0014,0.0014,0.0014,0.0017,0.0017,0.0017,0.0017,0.0009,0.0008,0.0008,0,0,0,0,0,0,0,0,0,0,0,0,0,-0.0065,-0.0064,-0.0009,-0.0008,-0.0008,0.0014,0.0014,0.0014,0.0017,0.0017,0.0017,0.0017,0.0009,0.0008,0.0008,0,0,0,0,0,0,0,0,0,0,0,0,0,-0.0044,-0.0063,-0.0009,-0.0002,-0.0,0.0014,0.0014,0.0014,0.0017,0.0017,0.0017,0.0017,0.0009,0.0008,0.0008,0.0005,0,0,0.0007,0.0007,0,0,0,0,0,0,0,0,-0.0045,-0.0042,-0.0003,-0.0002,-0.0001,0.0015,-0.0008,0.001,0.0017,0.0007,0.0017,0.0017,0.001,0.0009,0.001,0.0004,0.0004,0.0007,0.0007,0.0006,0.0006,0,0,0,0,0,0,0,-0.0046,-0.0043,-0.0002,-0.0002,-0.0001,-0.0004,-0.0002,-0.0005,0.0005,0.0008,0.0009,0.0016,0.001,0.001,0.001,0.0004,0.0007,0.0006,0.0006,0.0006,0.0018,0.0018,0,0,0,0,0,0,-0.0042,-0.0044,-0.0003,-0.0001,-0.002,-0.0003,-0.0,0.0008,0.0006,0.0007,0.0016,0.0016,0.0011,0.001,0.0009,0.0032,0.0006,0.0006,0.0006,0.0017,0.0018,0.0018,0,0,0,0,0,0,-0.0044,-0.0039,-0.0004,-0.002,-0.0016,-0.0002,0.0007,0.0008,0.0006,0.0013,0.0012,0.0012,0.0011,0.001,0.0006,0.003,0.0006,0.0005,0.0017,0.0017,0.0018,0.0059,0,0,0,0,0,0,-0.0045,-0.004,-0.004,-0.002,-0.0014,0.0003,0.0007,0.0009,0.0012,0.0012,0.0009,0.0009,0.0011,0.0007,0.0006,0.0029,0.0005,0.0016,0.0017,0.0018,0.0057,0.0061,0.0065,0,0,0,0,0,-0.0048,-0.0048,-0.0041,-0.0036,-0.0013,0.0003,0.0005,0.0013,0.0011,0.001,0.001,0.0009,0.0013,0.0006,0.0005,0.0029,0.0015,0.0017,0.0018,0.0055,0.006,0.0065,0,0,0,0,0,0,-0.0073,-0.0047,-0.0038,-0.0031,-0.0014,0.0005,0.0004,0.001,0.0009,0.0008,0.0008,0.0007,0.0018,0.0011,0.0004,0.0035,0.0017,0.0018,0.0046,0.0051,0.0055,0.0022,0.0005,0,0,0,0,0,-0.0077,-0.0072,-0.0045,-0.004,-0.0031,-0.0015,-0.001,0.0,0.0007,0.0007,0.0006,0.0009,0.0023,0.0025,0.0029,0.0037,0.0011,0.0053,0.0057,0.006,0.0033,-0.0019,-0.0023,0.0022,0.0022,0.0022,0,0,-0.0085,-0.007,-0.0067,-0.0045,-0.0033,-0.0019,-0.0013,-0.0001,0.0012,0.0006,0.001,0.0019,0.0027,0.0045,0.005,0.0041,0.005,0.0062,0.0065,0.0035,-0.0018,-0.0023,-0.0027,0.0023,0.0023,0.0023,0,0,-0.0096,-0.0084,-0.0082,-0.0066,-0.0042,-0.0028,-0.0025,-0.0005,0.0004,0.0021,0.0023,0.0025,0.0052,0.0049,0.0058,0.0076,0.0071,0.0104,0.0097,0.0049,0.0044,0.0039,0.0068,0.0065,0.0106,0.0106,0.0107,0,-0.0108,-0.01,-0.008,-0.0069,-0.006,-0.0032,-0.0027,-0.0006,0.001,0.0003,0.0028,0.0034,0.0048,0.0046,0.0075,0.0083,0.0081,0.0084,0.0052,0.0046,0.004,0.007,0.0066,0.0109,0.0108,0.0108,0.0108,0,-0.0112,-0.0105,-0.0102,-0.0079,-0.0066,-0.0057,-0.002,-0.001,0.0011,0.0019,0.0023,0.0039,0.0034,0.0064,0.0088,0.0066,0.0093,0.0063,0.0036,0.0037,0.0071,0.0066,0.0112,0.0111,0.011,0.011,0,0,-0.0148,-0.0115,-0.0115,-0.0107,-0.0074,-0.0062,-0.0039,-0.0028,-0.0027,-0.0001,-0.0012,0.0026,0.0021,0.0027,0.0049,0.0025,0.003,0.0042,0.0038,0.0067,-0.0015,0.0033,0.0033,-0.0003,-0.0005,-0.0007,0.0049,0,-0.0164,-0.015,-0.0131,-0.012,-0.0112,-0.0082,-0.0066,-0.0049,-0.0027,-0.0026,-0.0019,-0.0011,0.0015,0.003,0.0007,0.0027,0.0009,0.0021,-0.0019,-0.0019,0.0017,0.0023,-0.0016,0.0031,0.0044,0.0044,0.0043,0,-0.0183,-0.0171,-0.0163,-0.0144,-0.0139,-0.0123,-0.011,-0.0088,-0.0077,-0.006,-0.007,-0.0058,-0.0055,-0.0045,-0.0052,-0.0037,-0.0032,-0.0027,-0.0026,-0.0015,0.0016,0.0018,0.0021,0.0034,0.0035,0.0036,0.0036,0,-0.0221,-0.0201,-0.0198,-0.0187,-0.0152,-0.0147,-0.0129,-0.0111,-0.0087,-0.0088,-0.007,-0.0095,-0.0066,-0.01,-0.0035,-0.0054,-0.0035,-0.0074,-0.0036,-0.0028,-0.0092,-0.0088,-0.0136,-0.0136,-0.0136,-0.0136,-0.0136,0,-0.0247,-0.0246,-0.0211,-0.0203,-0.019,-0.0168,-0.0151,-0.0135,-0.0111,-0.0079,-0.0091,-0.0048,-0.0084,-0.0052,-0.0045,-0.0011,-0.0047,-0.0042,-0.0033,-0.0067,-0.0062,-0.0105,-0.0103,-0.0134,-0.0135,-0.0135,-0.0135,0,-0.027,-0.0257,-0.0242,-0.0212,-0.0199,-0.0183,-0.0127,-0.0107,-0.0095,-0.0048,-0.0042,-0.0005,0.0054,0.0048,0.0041,0.0005,0.0008,0.0017,0.0033,0.004,0.0049,0.0053,0.0028,0.0029,0.0031,0.0032,0.0033,0,-0.0269,-0.0267,-0.0231,-0.0202,-0.018,-0.0146,-0.0109,-0.0089,-0.0058,0.0009,0.0039,0.01,0.0206,0.0238,0.015,0.014,0.0122,0.0069,-0.002,0.0043,0.0055,0.0057,0.006,-0.0052,-0.0051,-0.0051,-0.0051,0,-0.0252,-0.0246,-0.0219,-0.0164,-0.0124,-0.0082,-0.0035,-0.001,0.003,0.011,0.0244,0.0337,0.0342,0.0331,0.0269,0.0228,0.006,0.0071,0.01,-0.0082,-0.0027,-0.0016,-0.0013,-0.0049,-0.005,-0.005,-0.005,-0.005,-0.0216,-0.0193,-0.0151,-0.0101,-0.0051,-0.0,0.0029,0.0106,0.0208,0.0327,0.0403,0.0537,0.0433,0.0375,0.0296,0.0134,0.0124,0.0035,0.0031,0.0028,0.0013,0.0067,0.0065,0.0066,0.0066,0.0067,0.0067,0,-0.0142,-0.012,-0.0078,-0.0016,0.0042,0.0052,0.0101,0.0155,0.0309,0.0437,0.0601,0.0559,0.0536,0.0421,0.017,0.0055,-0.0001,0.0027,-0.0039,-0.004,-0.0041,-0.0063,-0.003,-0.003,-0.003,-0.003,0,0,-0.0092,-0.0039,-0.0031,0.0068,0.0113,0.0165,0.0191,0.0299,0.0377,0.0574,0.0649,0.0727,0.0566,0.0381,0.0219,0.009,0.005,0.0062,0.0142,0.0079,0.008,-0.0042,-0.0076,0,0,0,0,0]}],[{"header":{"parameterUnit":"m.s-1","parameterCategory":2,"la1":30.2991,"la2":30.254,"lo1":-89.0895,"lo2":-89.0444,"dy":0.0017,"dx":0.0017,"nx":28,"ny":28,"refTime":"2025-01-25T03:00:00:Z","depth":"4","parameterNumber":2,"parameterNumberName":"U-component_of_CURRENTS"},"data":[0,0,0,0,0,0,0,0,0,0,0,0,0,0,0,0,0,0,0,0,0,0,0,0,0,0,0,0,0,0,0,0,0,0,0,0,0,0,0,0,0,0,0,0,0,0,0,0,0,0,0,0,0,0,0,0,0,0,0.0637,0.0637,0,0.0647,0.0647,0.0647,0.0674,0.0675,0.0675,0.0676,0.0683,0.0682,0.0682,0,0,0,0,0,0,0,0,0,0,0,0,0,0.0628,0.0628,0.0637,0.0637,0.0637,0.0647,0.0647,0.0647,0.0674,0.0675,0.0675,0.0676,0.0683,0.0682,0.0682,0,0,0,0,0,0,0,0,0,0,0,0,0,0.0633,0.0628,0.0637,0.0653,0.0654,0.0647,0.0647,0.0647,0.0674,0.0675,0.0676,0.0677,0.0683,0.0682,0.0682,0.0657,0,0,0.068,0.0679,0,0,0,0,0,0,0,0,0.0633,0.0633,0.065,0.0652,0.0653,0.0661,0.0647,0.0651,0.0673,0.0665,0.0676,0.0677,0.0675,0.0675,0.0673,0.0657,0.0657,0.068,0.0679,0.0679,0.0679,0,0,0,0,0,0,0,0.0632,0.0633,0.064,0.065,0.0652,0.0655,0.0657,0.0647,0.0663,0.0666,0.0668,0.0671,0.0676,0.0674,0.0674,0.0657,0.068,0.0679,0.0679,0.0678,0.07,0.0701,0,0,0,0,0,0,0.0633,0.0632,0.0639,0.064,0.0647,0.0655,0.0657,0.0657,0.0663,0.0666,0.067,0.0672,0.0674,0.0674,0.0674,0.0702,0.0679,0.0678,0.0678,0.0699,0.07,0.0701,0,0,0,0,0,0,0.0633,0.0633,0.0639,0.0638,0.0639,0.0654,0.0654,0.0656,0.0671,0.0667,0.0669,0.0684,0.0675,0.0675,0.069,0.07,0.0678,0.0677,0.0698,0.0699,0.0701,0.0721,0,0,0,0,0,0,0.0632,0.0633,0.0635,0.0638,0.0639,0.0653,0.0653,0.0656,0.0671,0.0674,0.0679,0.068,0.0676,0.0691,0.0689,0.0699,0.0677,0.0697,0.0699,0.07,0.0719,0.0723,0.0727,0,0,0,0,0,0.0632,0.0627,0.0635,0.0636,0.064,0.0653,0.0655,0.0668,0.0671,0.0683,0.069,0.0681,0.0702,0.0691,0.0688,0.0699,0.0696,0.0698,0.07,0.0718,0.0723,0.0727,0,0,0,0,0,0,0.0624,0.0629,0.0638,0.0636,0.0654,0.0659,0.0664,0.0673,0.0686,0.0694,0.0687,0.0689,0.0709,0.0702,0.069,0.0713,0.0699,0.0701,0.0713,0.0718,0.0721,0.0715,0.0676,0,0,0,0,0,0.0622,0.0618,0.0636,0.0634,0.0645,0.0657,0.0663,0.068,0.069,0.0697,0.0704,0.0709,0.0711,0.0714,0.072,0.0723,0.0708,0.0732,0.0736,0.0739,0.0734,0.0729,0.0731,0.0709,0.0709,0.0709,0,0,0.0615,0.0619,0.0616,0.0633,0.0643,0.0654,0.0664,0.0685,0.0695,0.0694,0.0712,0.0724,0.0718,0.0732,0.0739,0.0728,0.0737,0.0742,0.0744,0.0737,0.0731,0.0733,0.0735,0.071,0.071,0.071,0,0,0.06,0.061,0.0606,0.0624,0.0652,0.0661,0.0671,0.0697,0.0713,0.0741,0.0738,0.0747,0.077,0.0752,0.0746,0.0768,0.076,0.079,0.0796,0.0791,0.0793,0.0794,0.0772,0.0771,0.0787,0.0788,0.0788,0,0.0598,0.0592,0.061,0.062,0.063,0.0664,0.0672,0.069,0.0721,0.0725,0.076,0.0775,0.0769,0.0751,0.0772,0.0771,0.0778,0.0777,0.0794,0.0795,0.0796,0.0774,0.0772,0.0789,0.0789,0.0788,0.0788,0,0.0578,0.0588,0.059,0.0608,0.0624,0.064,0.0671,0.0696,0.073,0.0744,0.0771,0.0782,0.0786,0.0794,0.0795,0.0793,0.08,0.0802,0.0778,0.0799,0.0775,0.0773,0.0791,0.079,0.079,0.0789,0,0,0.054,0.0569,0.0574,0.0584,0.0622,0.0633,0.0654,0.0673,0.0685,0.0737,0.0747,0.0764,0.0786,0.0781,0.0784,0.0788,0.0794,0.0813,0.0812,0.0783,0.0792,0.0764,0.0758,0.082,0.082,0.082,0.0771,0,0.0523,0.0536,0.0552,0.0566,0.0577,0.0613,0.0624,0.0651,0.0693,0.0718,0.0733,0.076,0.0775,0.0801,0.0801,0.0808,0.0793,0.0807,0.0784,0.0783,0.0748,0.0756,0.082,0.077,0.0769,0.0769,0.0769,0,0.0496,0.051,0.0521,0.0548,0.0555,0.057,0.0598,0.0618,0.0652,0.0694,0.0724,0.0756,0.0762,0.079,0.0785,0.081,0.0799,0.08,0.0798,0.0761,0.0751,0.0748,0.0764,0.0765,0.0765,0.0765,0.0766,0,0.0453,0.0484,0.0489,0.0501,0.0537,0.0549,0.057,0.0609,0.0642,0.0687,0.0735,0.0742,0.0777,0.0775,0.0792,0.0804,0.0793,0.079,0.0735,0.0732,0.0761,0.0761,0.0763,0.0763,0.0763,0.0763,0.0763,0,0.0416,0.0425,0.0476,0.0479,0.0495,0.0528,0.0557,0.0587,0.0644,0.0674,0.0724,0.0757,0.0791,0.0799,0.0788,0.0762,0.0778,0.073,0.0719,0.0772,0.0773,0.0759,0.0759,0.0761,0.0762,0.0762,0.0763,0,0.0367,0.0398,0.0411,0.0455,0.0478,0.0491,0.0571,0.0595,0.0657,0.0706,0.0732,0.0786,0.0795,0.0802,0.0791,0.0758,0.0729,0.0704,0.0753,0.0746,0.0666,0.0668,0.0628,0.0627,0.0625,0.0624,0.0624,0,0.034,0.0341,0.0398,0.0423,0.0449,0.0493,0.0527,0.0597,0.0634,0.0711,0.0723,0.0767,0.0787,0.0741,0.0745,0.0701,0.069,0.0661,0.0667,0.0659,0.0653,0.0657,0.066,0.0622,0.0621,0.0621,0.0621,0,0.0288,0.0313,0.0331,0.0379,0.0421,0.0469,0.0525,0.0553,0.062,0.0695,0.0716,0.0723,0.072,0.0708,0.0689,0.0653,0.0681,0.0649,0.0651,0.0656,0.0651,0.0647,0.0652,0.0617,0.0617,0.0618,0.0618,0,0.0256,0.0259,0.0286,0.0328,0.0378,0.0412,0.0457,0.0505,0.0551,0.0646,0.0642,0.0671,0.0713,0.068,0.0654,0.0635,0.0616,0.0588,0.0593,0.0597,0.0611,0.0603,0.0538,0,0,0,0,0,0.0227,0.0223,0.0239,0.0273,0.0323,0.0356,0.0435,0.0482,0.0555,0.0562,0.061,0.0607,0.0598,0.0606,0.0575,0.0608,0.0597,0.0566,0.0562,0.0594,0.0599,0.062,0,0,0,0,0,0,0.0209,0.0211,0.0209,0.0215,0.0239,0.0283,0.0332,0.0392,0.0408,0.0491,0.0492,0.0564,0.0559,0.0606,0.0559,0.0561,0.0544,0.0594,0.0592,0.0592,0.0596,0.06,0.0623,0,0,0,0,0]},{"header":{"parameterUnit":"m.s-1","parameterCategory":2,"la1":30.2991,"la2":30.254,"lo1":-89.0895,"lo2":-89.0444,"dy":0.0017,"dx":0.0017,"nx":28,"ny":28,"refTime":"2025-01-25T03:00:00:Z","depth":"4","parameterNumber":3,"parameterNumberName":"V-component_of_CURRENTS"},"data":[0,0,0,0,0,0,0,0,0,0,0,0,0,0,0,0,0,0,0,0,0,0,0,0,0,0,0,0,0,0,0,0,0,0,0,0,0,0,0,0,0,0,0,0,0,0,0,0,0,0,0,0,0,0,0,0,0,0,0.0027,0.0028,0,0.0055,0.0055,0.0055,0.0074,0.0074,0.0074,0.0074,0.0089,0.009,0.009,0,0,0,0,0,0,0,0,0,0,0,0,0,-0.0016,-0.0015,0.0027,0.0028,0.0028,0.0055,0.0055,0.0056,0.0074,0.0074,0.0074,0.0074,0.0089,0.009,0.009,0,0,0,0,0,0,0,0,0,0,0,0,0,0.0005,-0.0015,0.0027,0.0041,0.0043,0.0055,0.0055,0.0056,0.0074,0.0074,0.0074,0.0075,0.0089,0.009,0.009,0.0085,0,0,0.0091,0.0091,0,0,0,0,0,0,0,0,0.0004,0.0007,0.0039,0.004,0.0042,0.0062,0.0046,0.0065,0.0073,0.0061,0.0074,0.0075,0.008,0.0081,0.0084,0.0085,0.0086,0.0091,0.0091,0.0091,0.0091,0,0,0,0,0,0,0,0.0003,0.0006,0.0037,0.0039,0.0041,0.0044,0.0048,0.0049,0.0067,0.0062,0.0063,0.0068,0.008,0.0083,0.0084,0.0086,0.0091,0.0091,0.0091,0.0091,0.0021,0.0019,0,0,0,0,0,0,0.0002,0.0004,0.0036,0.0038,0.0025,0.0045,0.0049,0.0055,0.0067,0.007,0.0068,0.0069,0.0083,0.0084,0.0085,0.0033,0.0091,0.0091,0.0091,0.0023,0.0021,0.0018,0,0,0,0,0,0,0.0001,0.0004,0.0035,0.0023,0.0027,0.0046,0.0052,0.0055,0.0061,0.0072,0.0074,0.0072,0.0083,0.0084,0.0075,0.0036,0.0091,0.0092,0.0025,0.0022,0.002,-0.0041,0,0,0,0,0,0,-0.0001,0.0004,0.0005,0.0023,0.0028,0.0036,0.0052,0.0055,0.0064,0.0066,0.0076,0.0078,0.0083,0.0074,0.0075,0.0037,0.0092,0.0028,0.0024,0.002,-0.0036,-0.0046,-0.0054,0,0,0,0,0,-0.0002,-0.0003,0.0005,0.0008,0.0029,0.0036,0.0038,0.0052,0.0064,0.006,0.0062,0.0077,0.005,0.0073,0.0075,0.0036,0.003,0.0025,0.0021,-0.0033,-0.0044,-0.0054,0,0,0,0,0,0,-0.0025,-0.0001,0.0008,0.0014,0.0022,0.0039,0.0038,0.0051,0.0052,0.0054,0.0066,0.0066,0.0039,0.0046,0.0071,0.0001,0.0036,0.0032,-0.0005,-0.0015,-0.0024,0.0022,0.0092,0,0,0,0,0,-0.0028,-0.002,-0.0002,0.0001,0.0005,0.0022,0.0027,0.0037,0.0043,0.0045,0.0049,0.0041,0.002,0.0012,0.0003,-0.0025,0.0007,-0.0056,-0.0064,-0.0072,-0.0036,-0.0023,-0.0025,0.0003,0.0003,0.0004,0,0,-0.0036,-0.0021,-0.0017,-0.0003,0.0006,0.0006,0.0025,0.0031,0.0025,0.0045,0.0032,0.002,0.0007,-0.0031,-0.0045,-0.003,-0.0074,-0.0077,-0.0083,-0.0043,-0.0027,-0.003,-0.0032,0.0,0.0001,0.0001,0,0,-0.0042,-0.0035,-0.0028,-0.0024,-0.0011,-0.0007,-0.0006,0.0007,0.0004,-0.001,-0.0009,-0.003,-0.0058,-0.0073,-0.0087,-0.0144,-0.0115,-0.0173,-0.0182,-0.0171,-0.0172,-0.0172,-0.0172,-0.0172,-0.0183,-0.0184,-0.0184,0,-0.0052,-0.0032,-0.0028,-0.0024,-0.0014,-0.0014,-0.0006,-0.0021,-0.0016,-0.0008,-0.0023,-0.0052,-0.0074,-0.0104,-0.0144,-0.016,-0.015,-0.0142,-0.0179,-0.0178,-0.0177,-0.0176,-0.0175,-0.0187,-0.0187,-0.0186,-0.0186,0,-0.0047,-0.0036,-0.0035,-0.0027,-0.0029,-0.0021,-0.0035,-0.0042,-0.0049,-0.0049,-0.007,-0.0102,-0.0105,-0.0153,-0.0172,-0.0195,-0.0191,-0.0186,-0.0143,-0.0183,-0.0181,-0.0178,-0.0192,-0.0191,-0.019,-0.0189,0,0,-0.0039,-0.0029,-0.0026,-0.0011,-0.002,-0.0014,-0.0041,-0.0038,-0.0027,-0.0065,-0.005,-0.0127,-0.0121,-0.0135,-0.0169,-0.0185,-0.0211,-0.0193,-0.0191,-0.0176,-0.0196,-0.0213,-0.0212,-0.0215,-0.0214,-0.0213,-0.0209,0,-0.0024,-0.0003,-0.0009,0.0002,0.0018,0.0005,-0.001,-0.0018,-0.0031,-0.0029,-0.0069,-0.0078,-0.0127,-0.0134,-0.016,-0.0187,-0.0201,-0.0212,-0.0171,-0.017,-0.0166,-0.0207,-0.0211,-0.0207,-0.0206,-0.0206,-0.0205,0,0.0,0.0016,0.0037,0.0054,0.0059,0.0051,0.0064,0.0051,0.0035,0.0028,0.0014,-0.0006,-0.0046,-0.0079,-0.012,-0.0127,-0.0156,-0.0183,-0.0183,-0.0159,-0.018,-0.0152,-0.02,-0.02,-0.0201,-0.0201,-0.0201,0,0.0042,0.0055,0.0081,0.0084,0.0087,0.0093,0.0089,0.008,0.0088,0.0075,0.0086,0.0049,0.0033,-0.0004,-0.0085,-0.0093,-0.0123,-0.0133,-0.017,-0.0173,-0.0127,-0.0126,-0.0135,-0.0135,-0.0135,-0.0135,-0.0135,0,0.0082,0.0103,0.0104,0.0121,0.0149,0.0135,0.0164,0.0153,0.0156,0.0172,0.0126,0.0124,0.0052,0.0013,-0.0052,-0.0111,-0.0092,-0.0158,-0.0166,-0.0162,-0.0164,-0.0127,-0.0126,-0.0135,-0.0135,-0.0135,-0.0135,0,0.0119,0.0128,0.0155,0.0165,0.0172,0.0187,0.0203,0.0223,0.0221,0.024,0.0239,0.0189,0.013,0.0053,-0.0014,-0.0064,-0.0119,-0.0142,-0.0138,-0.0148,-0.018,-0.0183,-0.016,-0.016,-0.016,-0.0161,-0.0161,0,0.0135,0.0158,0.0182,0.02,0.0203,0.0227,0.0245,0.0251,0.0271,0.0272,0.0281,0.0234,0.0187,0.0084,-0.0008,-0.0108,-0.0131,-0.0146,-0.0156,-0.0169,-0.018,-0.0182,-0.0184,-0.0162,-0.0162,-0.0162,-0.0162,0,0.0154,0.0164,0.0183,0.0225,0.0248,0.0276,0.03,0.0324,0.0331,0.0343,0.0324,0.0262,0.0191,0.0087,0.0003,-0.0074,-0.0128,-0.015,-0.015,-0.0159,-0.0172,-0.0182,-0.0184,-0.0163,-0.0163,-0.0163,-0.0163,0,0.0153,0.0164,0.0193,0.0232,0.0268,0.0298,0.0316,0.0335,0.0356,0.0364,0.0353,0.0269,0.0227,0.0104,0.0022,-0.0054,-0.0069,-0.008,-0.0084,-0.0083,-0.0075,-0.008,-0.004,0,0,0,0,0,0.015,0.0166,0.0196,0.0235,0.0279,0.0299,0.0339,0.0355,0.0377,0.0375,0.0369,0.03,0.0178,0.0117,0.0041,0.0003,-0.0094,-0.0089,-0.0111,-0.017,-0.0169,-0.0176,0,0,0,0,0,0,0.0142,0.0172,0.0188,0.0234,0.0265,0.0305,0.0328,0.0344,0.0347,0.036,0.0294,0.0287,0.016,0.022,0.0039,0.0015,-0.0006,-0.0141,-0.0142,-0.0171,-0.017,-0.0169,-0.0175,0,0,0,0,0]}]]